SCP
0 0 0 0 0 0 0 0 0 0 0 0 0 0 0 0 0 0 0 0 0 0
0 0 0 0 0 0 0 0 0 0 0 0 0 0 0 0 0 0 0 0 0 0
0 0 0 0 0 0 0 0 0 0 0 0 0 0 0 0 0 0 0 0 0 0
0 0 0 0 0 0 0 0 0 0 0 0 0 0 0 0 -0 -0 -0 0 0 0
0 0 0 0 0 0 0 0 0 0 0 0 0 0 -0 -0 -0 -0 -0 -0 -0 -0
0 0 0 0 0 0 0 0 0 0 0 0 0 0 -0 -0 -0 -0 -0 -0 -0 -0
0 0 0 0 0 0 0 0 0 0 0 0 0 0 0 0 0 0 0 0 0 0
0 0 0 0 0 0 0 0 0 0 0 0 0 0 0 0 0 0 0 0 0 0
0 0 0 0 0 0 0 0 0 0 0 0 0 0 0 0 0 0 0 0 0 0
0 0 0 0 0 0 0 0 0 0 0 0 0 0 0 0 0 0 0 0 0 0
0 0 0 0 0 0 0 0 0 0 0 0 0 0 0 0 0 0 0 0 0 0
0 0 0 0 0 0 0 0 0 0 0 0 0 0 0 0 0 0 0 0 0 0
0 0 0 0 0 0 0 0 0 0 0 0 0 0 0 0 0 0 0 0 0 0
0 0 0 0 0 0 0 0 0 0 0 0 0 0 0 0 0 0 0 0 0 0
Wind_Speed_500mb
12 11 14 14 11 12 10 8 7 10 15 14 15 10 14 21 23 19 20 26 28 29
13 11 13 14 14 12 9 7 6 5 9 16 14 5 7 17 25 16 16 18 23 21
13 11 12 14 11 9 8 6 2 5 13 14 13 1 2 11 16 18 14 12 18 23
15 13 18 19 17 16 14 8 3 6 10 14 11 4 5 6 9 13 13 16 20 23
18 18 21 19 15 12 9 10 9 2 7 12 10 8 8 3 4 10 16 21 23 24
21 19 21 19 17 11 8 5 4 7 4 6 9 6 3 1 7 12 14 17 20 23
22 19 21 19 15 12 9 7 5 4 5 4 1 2 2 5 10 14 18 22 25 30
23 22 24 20 16 15 10 9 6 6 6 8 7 6 8 11 16 22 23 28 33 38
27 24 24 21 17 14 12 12 12 12 11 12 12 11 14 20 28 37 42 46 47 50
30 25 27 23 15 14 14 14 14 15 14 12 12 15 21 27 38 45 49 47 36 39
29 26 28 25 20 14 18 17 17 13 11 11 14 20 27 34 38 36 34 31 32 40
27 27 28 22 21 16 16 17 13 10 9 16 20 25 30 32 33 35 34 32 43 39
24 27 25 20 19 17 17 15 13 11 14 20 26 26 30 33 35 34 28 40 37 34
25 26 22 18 18 17 15 14 12 15 20 23 28 36 42 39 32 26 26 24 21 22
Wind_Direction_500mb
158 164 166 164 161 148 138 108 79 56 40 28 25 35 23 19 19 27 38 37 59 54
181 173 177 174 168 161 148 119 77 41 14 354 354 351 10 14 17 19 36 78 44 35
178 177 181 174 167 176 197 201 134 14 340 349 355 41 5 24 29 58 62 48 21 13
176 178 168 159 142 117 101 110 201 318 353 356 9 106 123 55 35 42 29 14 3 353
183 187 185 176 173 157 128 92 77 52 14 6 38 111 116 78 347 354 348 345 345 339
186 184 183 184 178 189 213 190 73 35 356 15 50 92 136 339 329 338 339 344 346 346
188 188 188 188 201 211 217 218 237 341 336 268 335 35 17 329 317 316 317 316 316 317
186 187 193 196 208 225 234 228 241 290 302 264 263 289 304 306 308 307 311 313 308 309
190 190 195 197 212 226 228 245 262 265 280 280 260 274 294 304 303 304 307 308 313 310
195 195 198 199 207 226 240 254 286 250 262 262 271 288 298 302 301 303 308 311 312 323
198 197 200 212 222 245 258 255 279 251 248 265 287 299 303 302 303 310 321 315 313 324
202 199 204 215 223 239 250 262 251 220 259 293 306 311 306 305 307 311 314 318 320 324
201 199 206 219 224 234 252 244 219 254 289 305 314 320 314 307 306 309 316 322 324 328
187 181 192 209 223 229 230 215 242 282 299 304 308 305 304 304 308 312 322 332 335 328
Wind_Speed_850mb
12 11 14 14 11 12 10 8 7 10 15 14 15 10 14 21 23 19 20 26 28 29
13 11 13 14 14 12 9 7 6 5 9 16 14 5 7 17 25 16 16 18 23 21
13 11 12 14 11 9 8 6 2 5 13 14 13 1 2 11 16 18 14 12 18 23
15 13 18 19 17 16 14 8 3 6 10 14 11 4 5 6 9 13 13 16 20 23
18 18 21 19 15 12 9 10 9 2 7 12 10 8 8 3 4 10 16 21 23 24
21 19 21 19 17 11 8 5 4 7 4 6 9 6 3 1 7 12 14 17 20 23
22 19 21 19 15 12 9 7 5 4 5 4 1 2 2 5 10 14 18 22 25 30
23 22 24 20 16 15 10 9 6 6 6 8 7 6 8 11 16 22 23 28 33 38
27 24 24 21 17 14 12 12 12 12 11 12 12 11 14 20 28 37 42 46 47 50
30 25 27 23 15 14 14 14 14 15 14 12 12 15 21 27 38 45 49 47 36 39
29 26 28 25 20 14 18 17 17 13 11 11 14 20 27 34 38 36 34 31 32 40
27 27 28 22 21 16 16 17 13 10 9 16 20 25 30 32 33 35 34 32 43 39
24 27 25 20 19 17 17 15 13 11 14 20 26 26 30 33 35 34 28 40 37 34
25 26 22 18 18 17 15 14 12 15 20 23 28 36 42 39 32 26 26 24 21 22
Wind_Direction_850mb
158 164 166 164 161 148 138 108 79 56 40 28 25 35 23 19 19 27 38 37 59 54
181 173 177 174 168 161 148 119 77 41 14 354 354 351 10 14 17 19 36 78 44 35
178 177 181 174 167 176 197 201 134 14 340 349 355 41 5 24 29 58 62 48 21 13
176 178 168 159 142 117 101 110 201 318 353 356 9 106 123 55 35 42 29 14 3 353
183 187 185 176 173 157 128 92 77 52 14 6 38 111 116 78 347 354 348 345 345 339
186 184 183 184 178 189 213 190 73 35 356 15 50 92 136 339 329 338 339 344 346 346
188 188 188 188 201 211 217 218 237 341 336 268 335 35 17 329 317 316 317 316 316 317
186 187 193 196 208 225 234 228 241 290 302 264 263 289 304 306 308 307 311 313 308 309
190 190 195 197 212 226 228 245 262 265 280 280 260 274 294 304 303 304 307 308 313 310
195 195 198 199 207 226 240 254 286 250 262 262 271 288 298 302 301 303 308 311 312 323
198 197 200 212 222 245 258 255 279 251 248 265 287 299 303 302 303 310 321 315 313 324
202 199 204 215 223 239 250 262 251 220 259 293 306 311 306 305 307 311 314 318 320 324
201 199 206 219 224 234 252 244 219 254 289 305 314 320 314 307 306 309 316 322 324 328
187 181 192 209 223 229 230 215 242 282 299 304 308 305 304 304 308 312 322 332 335 328